Back to catalog

SL-16 DEB

AliveLEO
NORAD 22610·DEBRIS·🇷🇺 Russia

Launched Mar 26, 1993 from Baikonur Cosmodrome

Loading…

Next Passes (next 24 hours)

TLE

FreshSource: Space-Track

Epoch: Sep 14, 2026, 12:09 UTC

1 22610U 93016U   26257.50657295 -.00000009  00000-0  33136-4 0  9991
2 22610  70.9993 295.7367 0213547 185.0471 174.8477 13.67907234670820

Track SL-16 DEB in real time with AllMySat

Download on the App Store